Location: Houhaj�rvi
(61.2833°N, 23.0000°E)
Time: 06:52:30
(UTC+00:00)

Cosmos 1634 Rocket - Pass Details

Date: 27 February 2020
Orbit: 959 x 993 km, 82.9° (Epoch: 30 March)

Event Time Altitude Azimuth Distance (km) Brightness Sun altitude
Rises 18:53:52 0° 188° (S) 3,700 6.9 -22.8°
Reaches altitude 10° 18:56:22 10° 188° (S) 2,756 6.2 -23.1°
Maximum altitude 19:02:43 84° 101° (E) 1,008 3.9 -23.8°
Drops below altitude 10° 19:09:06 10° 15° (NNE) 2,767 6.5 -24.4°
Sets 19:11:37 0° 15° (NNE) 3,717 7.2 -24.7°
